Content
SEND FEEDBACK

Daily
Averages
Monthly
Summary
Algeria

CONSTANTINE, ALGERIA


Home > Africa > Algeria
Elevation: 2276 feet     Latitude: 36 17N     Longitude: 006 37E

WEATHER
 
SELECT A DAY
Number of Records: 279,763;   Date Range: 1/10/97 - 10/23/14
 
SHARE

PRINT THIS DATA

[ ← Previous Day ]
WEATHER ALMANAC - FEBRUARY 13, 2013
[ Next Day → ]
[ °C ]   °F
Weather ElementAverageHighLow
Temperature36.4 °F42.8 °F (2:00 pm)32 °F (3:00 am)
Dewpoint32.4 °F37.4 °F (12:30 pm)28.4 °F (5:00 am)
Humidity84.9 %93 % (1:00 am)68 % (4:00 pm)
Barometer29.98 in30.10 in (10:00 pm)29.92 in (6:00 am)
Wind Speed9.3 mph17.3 mph (11:00 am)
Weather ElementAverage
Visibility4.2 mi
Wind DirectionW (272.8 °)

Weather ElementTotal
Precipitation---
Heating Degree Days27.6 (Base 65)
Averaged from 50 records on February 13, 2013
WEATHER CONDITIONS BREAKOUT
WIND DIRECTION BREAKOUT
WEATHER BY HOUR - FEBRUARY 13, 2013
[ °C ]   °F
Local TimeTemperatureDewpointHumidityBarometerVisibilityWind DirectionWind SpeedGust SpeedPrecipitationEventsConditions
1:00 AM34.0 °F31.0 °F85 %30.01 in5.0 miWSW (250°)8.1 mphPartly Cloudy
1:00 AM33.8 °F32.0 °F93 %29.95 in5.0 miWSW (250°)8.1 mphMostly Cloudy
1:30 AM33.8 °F32.0 °F93 %29.95 in1.2 miWSW (250°)11.5 mphRainLight Rain
2:30 AM33.8 °F32.0 °F93 %29.95 in5.0 miWSW (250°)8.1 mphRainLight Rain
3:00 AM32.0 °F30.2 °F93 %29.95 in5.0 miSE (140°)4.6 mphMostly Cloudy
4:00 AM33.8 °F30.2 °F87 %29.95 in5.0 miNW (310°)6.9 mphMostly Cloudy
4:00 AM34.0 °F32.0 °F88 %30.01 in5.0 miNW (310°)6.9 mphRainLight Rain
5:00 AM33.8 °F28.4 °F81 %29.95 in5.0 miNW (320°)11.5 mphRainLight Rain
6:00 AM33.8 °F30.2 °F87 %29.92 in6.2 miWSW (250°)11.5 mphScattered Clouds
6:30 AM33.8 °F28.4 °F81 %29.92 in6.2 miWSW (250°)11.5 mphScattered Clouds
7:00 AM34.0 °F32.0 °F88 %30.02 in6.0 miWSW (240°)16.1 mphPartly Cloudy
7:00 AM33.8 °F32.0 °F93 %29.95 in6.2 miWSW (240°)16.1 mphScattered Clouds
7:30 AM33.8 °F28.4 °F81 %29.95 in6.2 miWSW (240°)11.5 mphScattered Clouds
8:00 AM33.8 °F28.4 °F81 %29.98 in6.2 miWSW (240°)6.9 mphMostly Cloudy
8:30 AM35.6 °F28.4 °F75 %29.98 in6.2 miWest (270°)5.8 mphMostly Cloudy
9:00 AM33.8 °F28.4 °F81 %29.98 in6.2 miWest (260°)13.8 mphMostly Cloudy
9:30 AM35.6 °F30.2 °F81 %29.98 in6.2 miWSW (240°)8.1 mphMostly Cloudy
10:00 AM36.0 °F31.0 °F75 %30.06 in6.0 miSouth (190°)4.6 mphMostly Cloudy
10:00 AM35.6 °F30.2 °F81 %29.98 in6.2 miSouth (190°)4.6 mphMostly Cloudy
10:30 AM37.4 °F30.2 °F75 %29.98 in6.2 miWest (270°)5.8 mphMostly Cloudy
11:00 AM35.6 °F30.2 °F81 %29.98 in1.6 miWest (270°)17.3 mphRainLight Rain
11:30 AM35.6 °F32.0 °F87 %30.01 in2.2 miNorth (350°)4.6 mphRain-SnowLight Rain
12:00 PM39.2 °F35.6 °F87 %30.01 in3.1 miCalmMostly Cloudy
12:30 PM41.0 °F37.4 °F87 %30.01 in2.5 miWSW (250°)6.9 mphRainLight Rain
1:00 PM41.0 °F35.6 °F81 %29.98 in5.0 miWest (260°)11.5 mphMostly Cloudy
1:00 PM40.0 °F36.0 °F80 %30.06 in5.0 miWest (260°)11.5 mphRainLight Rain
1:30 PM41.0 °F35.6 °F81 %29.98 in5.0 miWest (260°)11.5 mphMostly Cloudy
2:00 PM42.8 °F35.6 °F76 %29.95 in5.0 miWest (280°)15.0 mphMostly Cloudy
2:30 PM39.2 °F35.6 °F87 %29.95 in3.1 miWest (280°)15.0 mphRainLight Rain
3:00 PM41.0 °F37.4 °F87 %29.95 in5.0 miWest (280°)9.2 mphMostly Cloudy
3:30 PM42.8 °F37.4 °F81 %29.95 in5.0 miWNW (300°)13.8 mphMostly Cloudy
4:00 PM41.0 °F35.6 °F81 %29.95 in5.0 miWest (280°)16.1 mphMostly Cloudy
4:00 PM42.0 °F35.0 °F68 %30.02 in5.0 miWest (280°)16.1 mphPartly Cloudy
4:30 PM41.0 °F35.6 °F81 %29.95 in5.0 miWest (280°)12.7 mphMostly Cloudy
5:00 PM41.0 °F35.6 °F81 %29.95 in3.7 miWNW (300°)11.5 mphRainLight Rain
5:30 PM37.4 °F33.8 °F87 %29.95 in3.7 miWNW (300°)13.8 mphRainLight Rain
6:00 PM37.4 °F33.8 °F87 %29.95 in3.7 miNW (320°)11.5 mphRainLight Rain
6:30 PM37.4 °F33.8 °F87 %29.95 in2.5 miNW (320°)11.5 mphRainRain
7:00 PM36.0 °F34.0 °F87 %30.04 in4.0 miWSW (250°)3.5 mphRainLight Rain
7:00 PM37.4 °F33.8 °F87 %29.98 in3.7 miWSW (250°)3.5 mphRainLight Rain
7:30 PM37.4 °F33.8 °F87 %29.98 in1.9 miNW (320°)9.2 mphRainRain
8:00 PM35.6 °F32.0 °F87 %29.98 in3.1 miNNW (340°)9.2 mphRain-SnowLight Rain
8:30 PM35.6 °F32.0 °F87 %29.98 in3.7 miNNW (340°)9.2 mphRainLight Rain
9:00 PM35.6 °F32.0 °F87 %30.01 in1.9 miNorth (360°)3.5 mphRainRain
9:30 PM33.8 °F32.0 °F93 %30.01 in1.9 miNorth (360°)3.5 mphRainRain
10:00 PM33.0 °F30.0 °F84 %30.10 in2.0 miNorth (350°)3.5 mphSnowLight Snow
10:00 PM33.8 °F30.2 °F87 %30.01 in1.9 miNorth (350°)3.5 mphSnowLight Snow
10:30 PM32.0 °F30.2 °F93 %30.01 in1.9 miWest (270°)6.9 mphRain-SnowRain
11:00 PM33.8 °F32.0 °F93 %30.04 in1.9 miWest (260°)9.2 mphRain-SnowLight Rain
11:30 PM33.8 °F32.0 °F93 %30.04 in3.1 miNorth (360°)9.2 mphRainLight Rain
Hourly data recorded from DABC, located miles away from Constantine, Algeria







STORIES FROM OUR PARTNERS